Location: ??? ?????
(30.6482°N, 60.5850°E)
Time: 07:36:47
(UTC+00:00)

Centaur AC-42 - Pass Details

Date: 09 April 2020
Orbit: 643 x 36244 km, 20.8° (Epoch: 22 May)

Event Time Altitude Azimuth Distance (km) Brightness Sun altitude
Rises 16:35:29 0° 255° (WSW) 3,287 5.9 -27.8°
Reaches altitude 10° 16:38:14 10° 238° (WSW) 2,050 4.5 -28.4°
Enters shadow 16:39:15 15° 224° (SW) 1,700 3.9 -28.5°
